This is the latest recevied weather packets stored in our database for station/object WB0OCV. If no packets are shown the sender has not sent any weather packets the latest 10 day(s).
| Time | Temp. | Humidity | Pressure | Rain* | Wind** | Luminosity | Snow |
|---|---|---|---|---|---|---|---|
| 1778073862 | 18.89° C | 74% | 1015.1 hPa | 0 mm | - | 92 W/m² | - |
| 1778073256 | 18.33° C | 75% | 1015.2 hPa | 0 mm | - | 86 W/m² | - |
| 1778072650 | 17.78° C | 77% | 1015.2 hPa | 0 mm | - | 77 W/m² | - |
| 1778071139 | 17.78° C | 79% | 1015.4 hPa | 0 mm | - | 74 W/m² | - |
| 1778070838 | 17.78° C | 78% | 1015.4 hPa | 0 mm | - | 71 W/m² | - |
| 1778070534 | 17.22° C | 79% | 1015.4 hPa | 0 mm | - | 111 W/m² | - |
| 1778070230 | 17.22° C | 79% | 1015.4 hPa | 0 mm | - | 182 W/m² | - |
| 1778069929 | 17.22° C | 80% | 1015.6 hPa | 0 mm | - | 155 W/m² | - |
| 1778069625 | 16.67° C | 81% | 1015.6 hPa | 0 mm | - | 67 W/m² | - |
| 1778069322 | 16.67° C | 82% | 1015.7 hPa | 0 mm | - | 63 W/m² | - |
| 1778067509 | 16.11° C | 83% | 1015.5 hPa | 0 mm | - | 65 W/m² | - |
| 1778066903 | 16.11° C | 83% | 1015.7 hPa | 0 mm | - | 99 W/m² | - |
| 1778063875 | 15° C | 88% | 1015.7 hPa | 0 mm | - | 42 W/m² | - |
| 1778062665 | 15° C | 89% | 1015.4 hPa | 0 mm | - | 33 W/m² | - |
| 1778060849 | 13.89° C | 91% | 1015.8 hPa | 0 mm | - | 8 W/m² | - |
| 1778060246 | 13.89° C | 92% | 1015.6 hPa | 0 mm | - | 3 W/m² | - |
| 1778059640 | 13.89° C | 91% | 1015.7 hPa | 0 mm | - | 1 W/m² | - |
| 1778058430 | 13.89° C | 92% | 1015.5 hPa | 0 mm | - | 0 W/m² | - |
| 1778057824 | 13.89° C | 92% | 1015.8 hPa | 0 mm | - | 0 W/m² | - |
| 1778057216 | 13.89° C | 93% | 1015.7 hPa | 0 mm | - | 0 W/m² | - |
| 1778056609 | 13.89° C | 93% | 1015.7 hPa | 0 mm | - | 0 W/m² | - |
| 1778056308 | 13.89° C | 93% | 1015.9 hPa | 0 mm | - | 0 W/m² | - |
| 1778056005 | 13.33° C | 93% | 1015.8 hPa | 0 mm | - | 0 W/m² | - |
| 1778055704 | 13.89° C | 93% | 1016 hPa | 0 mm | - | 0 W/m² | - |
| 1778055403 | 13.33° C | 93% | 1015.9 hPa | 0 mm | - | 0 W/m² | - |
* Rain latest hour (hover to see other rain measurements)
** Current wind speed in m/s (hover to see current wind gust speed)